Zurück zum Katalog

FENGYUN 1C DEB

LostSSO
NORAD 32408·DEBRIS·🇨🇳 China

Gestartet May 10, 1999 von Taiyuan Satellite Launch Center

Loading…

Nächste Überflüge (nächste 24 Stunden)

TLE

VeraltetSource: Space-Track

Epoche: May 25, 2015, 04:00 UTC

1 32408U 99025CZU 15145.16706927  .00008645  00000-0  14067-2 0  9999
2 32408 098.2781 119.6018 0003379 286.8460 073.2375 14.71292071415153

Verfolge FENGYUN 1C DEB in Echtzeit mit AllMySat

Download on the App Store